Williams, AZ

11:19 PM MST on February 18, 2018 (GMT -0700)
Williams

Weather History for KCMR - January, 2012

Change the Weather History Date:

Thursday, January 19, 2012

  Actual Average (K40G) Record (K40G)
Temperature  
Mean Temperature 42 °F -  
Max Temperature 59 °F 44 °F 60 °F (2000)
Min Temperature 24 °F 34 °F 21 °F (1997)
Degree Days  
Heating Degree Days 24    
Moisture  
Dew Point 16 °F    
Average Humidity 46    
Maximum Humidity 74    
Minimum Humidity 16    
Precipitation  
Precipitation 0.00 in - - ()
Sea Level Pressure  
Sea Level Pressure 30.23 in    
Wind  
Wind Speed 8 mph (South)    
Max Wind Speed 13 mph    
Max Gust Speed 18 mph    
Visibility 10 miles    
Events      
Averages and records for this station are not official NWS values.
T = Trace of Precipitation, MM = Missing Value Source: NWS Daily Summary

Daily Weather History Graph

Daily Weather History Graph

Search for Another Location

Airport or City:

Trip Planner

Search our weather history database for the weather conditions in past years. The results will help you decide how hot, cold, wet, or windy it might be!

Date:

Astronomy

Jan. 19, 2012 Rise Set
Actual Time 7:35 AM MST 5:43 PM MST
Civil Twilight 7:08 AM MST 6:10 PM MST
Nautical Twilight 6:37 AM MST 6:41 PM MST
Astronomical Twilight 6:06 AM MST 7:12 PM MST
Moon 4:13 AM MST 2:21 PM MST
Length of Visible Light 11h 02m
Length of Day
10h 07m
Waning Crescent, 15% of the Moon is Illuminated
Jan 19
Waning Crescent
Jan 23
New
Jan 30
First Quarter
Feb 7
Full
Feb 14
Last Quarter

Hourly Weather History & Observations

Time (MST) Temp. Windchill Dew Point Humidity Pressure Visibility Wind Dir Wind Speed Gust Speed Precip Events Conditions
12:15 AM 24.8 °F 16.1 °F 15.8 °F 69% 30.30 in 10.0 mi SSE 8.1 mph - N/A   Clear
12:35 AM 24.8 °F 16.9 °F 15.8 °F 69% 30.30 in 10.0 mi SSE 6.9 mph - N/A   Clear
12:55 AM 26.6 °F 17.5 °F 15.8 °F 64% 30.29 in 10.0 mi SE 9.2 mph - N/A   Clear
1:35 AM 26.6 °F 19.1 °F 15.8 °F 64% 30.29 in 10.0 mi SSE 6.9 mph - N/A   Clear
1:55 AM 26.6 °F 19.1 °F 17.6 °F 69% 30.28 in 10.0 mi SSE 6.9 mph - N/A   Clear
2:15 AM 26.6 °F 19.1 °F 15.8 °F 64% 30.29 in 10.0 mi SSE 6.9 mph - N/A   Clear
2:35 AM 24.8 °F 15.3 °F 17.6 °F 74% 30.28 in 10.0 mi SSE 9.2 mph - N/A   Clear
2:55 AM 24.8 °F 16.1 °F 15.8 °F 69% 30.28 in 10.0 mi SSE 8.1 mph - N/A   Clear
3:15 AM 24.8 °F 15.3 °F 17.6 °F 74% 30.27 in 10.0 mi SSE 9.2 mph - N/A   Clear
3:35 AM 24.8 °F 17.9 °F 17.6 °F 74% 30.27 in 10.0 mi SSE 5.8 mph - N/A   Clear
3:55 AM 24.8 °F 15.3 °F 17.6 °F 74% 30.26 in 10.0 mi SSE 9.2 mph - N/A   Clear
4:15 AM 24.8 °F 16.1 °F 17.6 °F 74% 30.25 in 10.0 mi SSE 8.1 mph - N/A   Clear
4:35 AM 26.6 °F 18.2 °F 15.8 °F 64% 30.25 in 10.0 mi South 8.1 mph - N/A   Clear
4:55 AM 28.4 °F 21.2 °F 15.8 °F 59% 30.25 in 10.0 mi SSE 6.9 mph - N/A   Clear
5:15 AM 26.6 °F 17.5 °F 15.8 °F 64% 30.26 in 10.0 mi SSE 9.2 mph - N/A   Clear
5:35 AM 24.8 °F 16.1 °F 15.8 °F 69% 30.26 in 10.0 mi SSE 8.1 mph - N/A   Clear
5:55 AM 24.8 °F 16.9 °F 17.6 °F 74% 30.26 in 10.0 mi SSE 6.9 mph - N/A   Clear
6:15 AM 26.6 °F 17.5 °F 15.8 °F 64% 30.26 in 10.0 mi SSE 9.2 mph - N/A   Clear
6:35 AM 24.8 °F 16.1 °F 15.8 °F 69% 30.26 in 10.0 mi SSE 8.1 mph - N/A   Clear
6:55 AM 24.8 °F 15.3 °F 15.8 °F 69% 30.25 in 10.0 mi SSE 9.2 mph - N/A   Clear
7:15 AM 24.8 °F 14.6 °F 17.6 °F 74% 30.25 in 10.0 mi SSE 10.4 mph - N/A   Clear
7:35 AM 24.8 °F 15.3 °F 17.6 °F 74% 30.25 in 10.0 mi SSE 9.2 mph - N/A   Clear
7:55 AM 24.8 °F 14.6 °F 17.6 °F 74% 30.25 in 10.0 mi SSE 10.4 mph - N/A   Clear
8:15 AM 26.6 °F 16.2 °F 17.6 °F 69% 30.25 in 10.0 mi SSE 11.5 mph - N/A   Clear
8:35 AM 32.0 °F 24.2 °F 17.6 °F 55% 30.25 in 10.0 mi SSE 9.2 mph - N/A   Clear
8:55 AM 35.6 °F 29.2 °F 17.6 °F 48% 30.26 in 10.0 mi SSE 8.1 mph - N/A   Clear
9:15 AM 37.4 °F 30.8 °F 17.6 °F 45% 30.26 in 10.0 mi SSE 9.2 mph - N/A   Clear
9:35 AM 41.0 °F 35.8 °F 19.4 °F 42% 30.25 in 10.0 mi SSE 8.1 mph - N/A   Clear
9:55 AM 46.4 °F 42.9 °F 19.4 °F 34% 30.25 in 10.0 mi SSE 6.9 mph - N/A   Clear
10:15 AM 50.0 °F - 17.6 °F 28% 30.25 in 10.0 mi SSE 5.8 mph - N/A   Clear
10:35 AM 53.6 °F - 17.6 °F 24% 30.25 in 10.0 mi ESE 4.6 mph - N/A   Clear
10:55 AM 57.2 °F - 17.6 °F 21% 30.25 in 10.0 mi WSW 4.6 mph - N/A   Clear
11:15 AM 57.2 °F - 15.8 °F 20% 30.24 in 10.0 mi SW 6.9 mph - N/A   Clear
11:35 AM 57.2 °F - 15.8 °F 20% 30.23 in 10.0 mi SW 9.2 mph - N/A   Clear
12:15 PM 59.0 °F - 17.6 °F 20% 30.20 in 10.0 mi SW 9.2 mph - N/A   Clear
12:35 PM 59.0 °F - 15.8 °F 19% 30.19 in 10.0 mi SSW 10.4 mph - N/A   Clear
1:15 PM 59.0 °F - 15.8 °F 19% 30.17 in 10.0 mi SW 11.5 mph - N/A   Clear
1:35 PM 59.0 °F - 14.0 °F 17% 30.16 in 10.0 mi SW 12.7 mph - N/A   Clear
1:55 PM 59.0 °F - 14.0 °F 17% 30.15 in 10.0 mi SSW 11.5 mph 17.3 mph N/A   Clear
2:15 PM 59.0 °F - 14.0 °F 17% 30.15 in 10.0 mi SSW 9.2 mph - N/A   Clear
2:35 PM 59.0 °F - 14.0 °F 17% 30.14 in 10.0 mi SSW 9.2 mph 16.1 mph N/A   Clear
2:55 PM 59.0 °F - 12.2 °F 16% 30.14 in 10.0 mi SW 9.2 mph - N/A   Clear
3:15 PM 57.2 °F - 10.4 °F 16% 30.14 in 10.0 mi SW 12.7 mph 17.3 mph N/A   Clear
3:35 PM 57.2 °F - 10.4 °F 16% 30.13 in 10.0 mi SW 11.5 mph - N/A   Clear
3:55 PM 55.4 °F - 10.4 °F 17% 30.14 in 10.0 mi SSW 11.5 mph 18.4 mph N/A   Clear
4:15 PM 55.4 °F - 10.4 °F 17% 30.14 in 10.0 mi SW 10.4 mph - N/A   Clear
4:35 PM 53.6 °F - 10.4 °F 18% 30.14 in 10.0 mi SW 8.1 mph - N/A   Clear
4:55 PM 51.8 °F - 14.0 °F 22% 30.14 in 10.0 mi SW 6.9 mph - N/A   Clear
5:15 PM 50.0 °F - 14.0 °F 24% 30.14 in 10.0 mi SW 8.1 mph - N/A   Clear
5:35 PM 48.2 °F - 14.0 °F 25% 30.14 in 10.0 mi SSW 6.9 mph - N/A   Clear
6:15 PM 44.6 °F 42.2 °F 14.0 °F 29% 30.14 in 10.0 mi South 4.6 mph - N/A   Clear
6:35 PM 42.8 °F 38.0 °F 14.0 °F 31% 30.14 in 10.0 mi South 8.1 mph - N/A   Clear
6:55 PM 41.0 °F 36.4 °F 14.0 °F 33% 30.14 in 10.0 mi South 6.9 mph - N/A   Clear
7:15 PM 37.4 °F 32.1 °F 14.0 °F 38% 30.14 in 10.0 mi SSE 6.9 mph - N/A   Clear
7:35 PM 37.4 °F - 14.0 °F 38% 30.14 in 10.0 mi Calm Calm - N/A   Clear
7:55 PM 37.4 °F 32.8 °F 14.0 °F 38% 30.14 in 10.0 mi SE 5.8 mph - N/A   Clear
8:15 PM 32.0 °F 24.8 °F 14.0 °F 48% 30.14 in 10.0 mi SE 8.1 mph - N/A   Clear
8:35 PM 32.0 °F 24.8 °F 12.2 °F 44% 30.13 in 10.0 mi SSE 8.1 mph - N/A   Clear
8:55 PM 33.8 °F 27.0 °F 12.2 °F 41% 30.13 in 10.0 mi SSE 8.1 mph - N/A   Clear
9:15 PM 35.6 °F 27.5 °F 10.4 °F 35% 30.12 in 10.0 mi SSE 11.5 mph - N/A   Clear
9:35 PM 35.6 °F 30.7 °F 10.4 °F 35% 30.12 in 10.0 mi South 5.8 mph - N/A   Clear
9:55 PM 33.8 °F 27.0 °F 10.4 °F 38% 30.12 in 10.0 mi SSE 8.1 mph - N/A   Clear
10:15 PM 35.6 °F 28.6 °F 10.4 °F 35% 30.12 in 10.0 mi SSE 9.2 mph - N/A   Clear
10:35 PM 37.4 °F 29.8 °F 8.6 °F 30% 30.12 in 10.0 mi SSW 11.5 mph - N/A   Clear
10:55 PM 42.8 °F 36.2 °F 5.0 °F 21% 30.12 in 10.0 mi SSW 12.7 mph 16.1 mph N/A   Clear
11:15 PM 42.8 °F 38.0 °F 6.8 °F 23% 30.12 in 10.0 mi SSW 8.1 mph 18.4 mph N/A   Clear
11:35 PM 41.0 °F 35.2 °F 6.8 °F 24% 30.13 in 10.0 mi SSW 9.2 mph - N/A   Clear
11:55 PM 39.2 °F 33.6 °F 8.6 °F 28% 30.13 in 10.0 mi South 8.1 mph - N/A   Clear